Regional Weather Roundup
Issued by NWS Goodland, KS

Home | Current Version | Previous Version | Text Only | Print | Product List | Glossary On
Versions: 1 2 3 4 5 6 7 8 9 10 11 12 13 14 15 16 17 18 19 20 21 22 23 24 25 26 27 28 29 30 31 32 33 34 35 36 37 38 39 40 41 42 43 44 45 46 47 48 49 50
000
ASUS43 KGLD 191308
RWRGLD

GOODLAND FORECAST AREA HOURLY WEATHER ROUNDUP
NATIONAL WEATHER SERVICE GOODLAND KS
700 AM MDT SUN APR 19 2015

...OFFICIAL OBSERVATIONS...

CITY           SKY/WX    TMP DP  RH WIND       PRES   REMARKS
GOODLAND KS    LGT RAIN  43  42  97 N30G37    29.95R
HILL CITY KS   HVY RAIN  50  47  89 W8        29.86R FOG
IMPERIAL NEB   CLOUDY    45  37  73 N26G39    29.98R
MCCOOK NEB     RAIN      49  45  86 N16G25    29.90R FOG
AKRON CO       CLOUDY    36  33  89 N21       30.07R
BURLINGTON CO  RAIN      41  38  89 N29G38    29.99R
LIMON CO       CLOUDY    35  32  88 N32G45    30.06R
$$

...UNOFFICIAL OBSERVATIONS...

CITY           SKY/WX    TMP DP  RH WIND       PRES   REMARKS
COLBY KS       LGT RAIN  46  46 100 NW22G30   29.92R
GOVE KS          N/A     50  32  50 MISG        N/A
LENORA KS        N/A     48  32  54 MISG        N/A
NORTON KS      LGT RAIN  48  45  87 NW15      29.85R
SHARON SPRINGS   N/A     44  42  94 MISG        N/A
TRIBUNE KS     CLOUDY    45  45 100 NW26G35   29.95R
KIT CARSON CO    N/A     38  34  87 MISG        N/A
YUMA CO          N/A     40  35  81 N15         N/A
$$


USA.gov is the U.S. government's official web portal to all federal, state and local government web resources and services.